SHU789 UNKL-UNNT

Flight info

Callsign SHU789
Flight time N/A
Altitude 36000
Route APRUS2F APRUS B926 NATIR NATIR1K
Aircraft A319/M-SDE3FGHIRWY/LB1

Departure

Time N/A
Airport Krasnoyarsk International Airport (UNKL)

Arrival

Time 2026-05-01 10:27
Airport Novosibirsk Tolmachevo Airport (UNNT)
Time Latitude Longitude Altitude Speed Heading
2026-05-01 09:58 55.18360 84.62174 21153 ft 301 kts 255°
2026-05-01 09:59 55.17766 84.58725 20775 ft 300 kts 255°
2026-05-01 09:59 55.17162 84.55231 20388 ft 299 kts 255°
2026-05-01 09:59 55.16563 84.51763 20006 ft 298 kts 255°
2026-05-01 09:59 55.15965 84.48313 19623 ft 297 kts 255°
2026-05-01 10:00 55.15362 84.44846 19246 ft 296 kts 255°
2026-05-01 10:00 55.14760 84.41403 18868 ft 296 kts 254°
2026-05-01 10:00 55.14159 84.37970 18500 ft 295 kts 254°
2026-05-01 10:00 55.13560 84.34539 18095 ft 295 kts 254°
2026-05-01 10:01 55.12967 84.31122 17710 ft 293 kts 254°
2026-05-01 10:01 55.12374 84.27725 17346 ft 291 kts 254°
2026-05-01 10:01 55.11782 84.24348 16983 ft 290 kts 254°
2026-05-01 10:01 55.11192 84.20993 16634 ft 289 kts 254°
2026-05-01 10:02 55.10606 84.17650 16279 ft 288 kts 254°
2026-05-01 10:02 55.10014 84.14302 15925 ft 288 kts 254°
2026-05-01 10:02 55.09424 84.10975 15581 ft 287 kts 254°
2026-05-01 10:02 55.08836 84.07657 15239 ft 286 kts 254°
2026-05-01 10:03 55.08248 84.04327 14894 ft 286 kts 255°
2026-05-01 10:03 55.07881 84.00943 14553 ft 284 kts 265°
2026-05-01 10:03 55.07682 83.97495 14208 ft 284 kts 264°
2026-05-01 10:03 55.07475 83.94067 13861 ft 284 kts 264°
2026-05-01 10:04 55.07266 83.90683 13491 ft 284 kts 264°
2026-05-01 10:04 55.07049 83.87229 13139 ft 282 kts 264°
2026-05-01 10:04 55.06837 83.83842 12793 ft 281 kts 264°
2026-05-01 10:04 55.06627 83.80459 12440 ft 280 kts 264°
2026-05-01 10:05 55.06418 83.77135 12094 ft 279 kts 264°
2026-05-01 10:05 55.06205 83.73741 11735 ft 278 kts 264°
2026-05-01 10:05 55.05994 83.70394 11380 ft 277 kts 264°
2026-05-01 10:05 55.05783 83.67060 11027 ft 276 kts 264°
2026-05-01 10:06 55.05571 83.63740 10661 ft 275 kts 264°
2026-05-01 10:06 55.05361 83.60458 10301 ft 275 kts 264°
2026-05-01 10:06 55.05145 83.57084 9927 ft 275 kts 264°
2026-05-01 10:06 55.04932 83.53772 9521 ft 274 kts 264°
2026-05-01 10:07 55.04721 83.50519 9141 ft 273 kts 264°
2026-05-01 10:07 55.04508 83.47240 8764 ft 272 kts 263°
2026-05-01 10:07 55.04293 83.43972 8370 ft 271 kts 263°
2026-05-01 10:07 55.04074 83.40678 7986 ft 270 kts 263°
2026-05-01 10:08 55.03540 83.34264 7184 ft 269 kts 252°
2026-05-01 10:08 55.02765 83.31325 6922 ft 266 kts 236°
2026-05-01 10:08 55.01644 83.28691 6863 ft 274 kts 232°
2026-05-01 10:09 55.00488 83.26051 6808 ft 275 kts 232°
2026-05-01 10:09 54.99330 83.23395 6747 ft 274 kts 232°
2026-05-01 10:09 54.98176 83.20751 6627 ft 275 kts 232°
2026-05-01 10:09 54.97020 83.18112 6506 ft 274 kts 231°
2026-05-01 10:10 54.95870 83.15480 6387 ft 274 kts 231°
2026-05-01 10:10 54.94715 83.12835 6254 ft 274 kts 232°
2026-05-01 10:10 54.93508 83.06632 6000 ft 277 kts 269°
2026-05-01 10:11 54.93803 83.03333 5870 ft 278 kts 287°
2026-05-01 10:11 54.94430 83.00155 5749 ft 277 kts 288°
2026-05-01 10:11 54.95050 82.96983 5621 ft 276 kts 288°
2026-05-01 10:11 54.95661 82.93819 5496 ft 277 kts 287°
2026-05-01 10:12 54.96270 82.90648 5371 ft 276 kts 288°
2026-05-01 10:12 54.96681 82.88505 5292 ft 277 kts 287°
2026-05-01 10:12 54.98103 82.81081 5001 ft 278 kts 287°
2026-05-01 10:13 54.98712 82.77897 4883 ft 277 kts 287°
2026-05-01 10:13 54.99319 82.74717 4756 ft 276 kts 287°
2026-05-01 10:13 54.99924 82.71543 4630 ft 276 kts 287°
2026-05-01 10:14 55.01129 82.65212 4377 ft 275 kts 287°
2026-05-01 10:14 55.01599 82.61989 4243 ft 273 kts 273°
2026-05-01 10:14 55.01385 82.58743 4124 ft 270 kts 249°
2026-05-01 10:14 55.00473 82.55943 3997 ft 265 kts 226°
2026-05-01 10:15 54.99033 82.54013 3872 ft 260 kts 204°
2026-05-01 10:15 54.97309 82.53181 3755 ft 256 kts 182°
2026-05-01 10:15 54.95552 82.53513 3623 ft 256 kts 162°
2026-05-01 10:15 54.93983 82.54966 3504 ft 256 kts 140°
2026-05-01 10:16 54.92841 82.57336 3380 ft 258 kts 119°
2026-05-01 10:16 54.92275 82.60279 3256 ft 259 kts 102°
2026-05-01 10:16 54.91562 82.66433 3005 ft 258 kts 102°
2026-05-01 10:17 54.91199 82.69494 2877 ft 258 kts 103°
2026-05-01 10:17 54.90464 82.75612 2631 ft 259 kts 103°
2026-05-01 10:17 54.90096 82.78674 2505 ft 258 kts 103°
2026-05-01 10:18 54.89358 82.84751 2253 ft 256 kts 103°
2026-05-01 10:18 54.88988 82.87787 2132 ft 256 kts 103°
2026-05-01 10:18 54.88622 82.90818 2002 ft 255 kts 103°
2026-05-01 10:19 54.88262 82.93833 1872 ft 257 kts 101°
2026-05-01 10:19 54.88283 82.96936 1746 ft 260 kts 78°
2026-05-01 10:19 54.89036 82.99630 1788 ft 241 kts 52°
2026-05-01 10:20 54.91293 83.03364 1777 ft 210 kts 44°
2026-05-01 10:20 54.92370 83.04910 1800 ft 192 kts 30°
2026-05-01 10:20 54.93604 83.05446 1781 ft 178 kts
2026-05-01 10:20 54.94735 83.04906 1772 ft 162 kts 329°
2026-05-01 10:21 54.95540 83.03636 1786 ft 152 kts 307°
2026-05-01 10:21 54.96834 83.00963 1770 ft 141 kts 308°
2026-05-01 10:21 54.97467 82.99662 1781 ft 143 kts 307°
2026-05-01 10:22 54.98739 82.97043 1777 ft 141 kts 308°
2026-05-01 10:22 55.00000 82.94440 1777 ft 142 kts 308°
2026-05-01 10:23 55.00633 82.93130 1779 ft 142 kts 307°
2026-05-01 10:23 55.01898 82.90504 1779 ft 142 kts 308°
2026-05-01 10:23 55.02515 82.89200 1776 ft 140 kts 303°
2026-05-01 10:24 55.03095 82.86029 1782 ft 139 kts 266°
2026-05-01 10:24 55.02833 82.82724 1788 ft 136 kts 258°
2026-05-01 10:25 55.02543 82.79443 1759 ft 138 kts 258°
2026-05-01 10:25 55.02243 82.76113 1343 ft 137 kts 258°
2026-05-01 10:26 55.02094 82.74457 1150 ft 138 kts 256°
2026-05-01 10:26 55.01946 82.72817 958 ft 138 kts 259°
2026-05-01 10:26 55.01666 82.69554 598 ft 135 kts 259°
2026-05-01 10:27 55.01423 82.66917 382 ft 127 kts 261°
2026-05-01 10:27 55.01227 82.64874 375 ft 47 kts 261°
2026-05-01 10:28 55.01177 82.64356 376 ft 43 kts 260°
2026-05-01 10:28 55.01079 82.63307 374 ft 46 kts 261°
2026-05-01 10:28 55.01029 82.62758 374 ft 41 kts 262°
2026-05-01 10:29 55.00963 82.62374 378 ft 0 kts 112°
2026-05-01 10:29 55.00963 82.62377 378 ft 2 kts 108°
2026-05-01 10:30 55.00962 82.62386 378 ft 0 kts 98°
2026-05-01 10:30 55.00998 82.62516 378 ft 11 kts 70°
2026-05-01 10:31 55.01048 82.62966 375 ft 27 kts 79°
2026-05-01 10:31 55.01128 82.63766 377 ft 39 kts 79°
2026-05-01 10:32 55.01218 82.64682 376 ft 36 kts 81°
2026-05-01 10:32 55.01197 82.65050 374 ft 20 kts 154°
2026-05-01 10:32 55.01146 82.65067 375 ft 0 kts 178°
2026-05-01 10:37 55.01142 82.65067 375 ft 1 kts 177°
2026-05-01 10:38 55.01132 82.65068 375 ft 2 kts 176°
2026-05-01 10:38 55.01117 82.65071 375 ft 3 kts 174°
2026-05-01 10:38 55.01080 82.65079 375 ft 8 kts 172°
2026-05-01 10:38 55.01036 82.65091 375 ft 7 kts 170°
2026-05-01 10:39 55.00968 82.65113 376 ft 9 kts 168°
2026-05-01 10:39 55.00943 82.65126 376 ft 2 kts 148°
2026-05-01 10:39 55.00935 82.65156 376 ft 4 kts 75°
2026-05-01 10:39 55.00945 82.65234 376 ft 4 kts 83°
2026-05-01 10:40 55.00947 82.65289 376 ft 7 kts 91°
2026-05-01 10:40 55.00902 82.65334 376 ft 7 kts 153°
2026-05-01 10:40 55.00895 82.65432 375 ft 11 kts 84°
2026-05-01 10:40 55.00911 82.65594 375 ft 16 kts 80°
2026-05-01 10:41 55.00932 82.65817 375 ft 21 kts 81°
2026-05-01 10:41 55.00954 82.66071 375 ft 16 kts 81°
2026-05-01 10:41 55.01030 82.66404 375 ft 11 kts 69°
2026-05-01 10:42 55.01058 82.66558 375 ft 15 kts 69°
2026-05-01 10:42 55.01079 82.66642 375 ft 0 kts 79°
2026-05-01 10:42 55.01080 82.66647 375 ft 2 kts 69°
2026-05-01 10:43 55.01084 82.66650 375 ft 0 kts 37°
2026-05-01 10:43 55.01087 82.66648 375 ft 0 kts
2026-05-01 10:43 55.01089 82.66642 375 ft 0 kts 321°
2026-05-01 10:43 55.01088 82.66637 375 ft 0 kts 290°
2026-05-01 10:44 55.01086 82.66629 375 ft 2 kts 257°
2026-05-01 10:44 55.01079 82.66609 375 ft 3 kts 242°
2026-05-01 10:44 55.01066 82.66567 375 ft 0 kts 241°
2026-05-01 10:45 55.01063 82.66556 375 ft 3 kts 241°
2026-05-01 10:45 55.01055 82.66531 375 ft 0 kts 241°
2026-05-01 10:45 55.01054 82.66528 375 ft 0 kts 237°
2026-05-01 10:46 55.01051 82.66524 375 ft 0 kts 227°
2026-05-01 10:46 55.01048 82.66525 375 ft 0 kts 194°
2026-05-01 10:46 55.01045 82.66533 375 ft 1 kts 135°
2026-05-01 10:46 55.01039 82.66567 375 ft 6 kts 118°
2026-05-01 10:47 55.01017 82.66583 375 ft 0 kts 171°